Volver al catálogo

BREEZE-M R/B

ActivoHEO
NORAD 28944·ROCKET BODY·🇷🇺 Russia

Lanzado Feb 28, 2006 desde Baikonur Cosmodrome

Loading…

Próximos Pases (próximas 24 horas)

TLE

ActualizadoSource: Space-Track

Época: Sep 10, 2026, 18:39 UTC

1 28944U 06006B   26253.77773986 -.00000072  00000-0  00000-0 0  9991
2 28944  50.7540  31.3918 4812518 172.1903 133.2166  5.07318023362234

Sigue BREEZE-M R/B en tiempo real con AllMySat

Download on the App Store